[[{"header":{"parameterUnit":"m.s-1","parameterCategory":1,"la1":30.2991,"la2":30.254,"lo1":-89.0895,"lo2":-89.0444,"dy":0.0017,"dx":0.0017,"nx":28,"ny":28,"refTime":"2023-11-01T09:00:00:Z","depth":0,"parameterNumber":2,"parameterNumberName":"U-component_of_WINDS"},"data":[0,0,0,0,0,0,0,0,0,0,0,0,0,0,0,0,0,0,0,0,0,0,0,0,0,0,0,0,0,0,0,0,0,0,0,0,0,0,0,0,0,0,0,0,0,0,0,0,0,0,0,0,0,0,0,0,0,0,-4.1102,-4.1104,0,-4.1217,-4.1218,-4.1219,-4.1122,-4.1118,-4.1114,-4.111,-4.1227,-4.1233,-4.124,0,0,0,0,0,0,0,0,0,0,0,0,0,-4.0798,-4.0804,-4.1102,-4.1104,-4.1105,-4.1216,-4.1218,-4.122,-4.1123,-4.1118,-4.1113,-4.1108,-4.1224,-4.1232,-4.1241,0,0,0,0,0,0,0,0,0,0,0,0,0,-4.0923,-4.0806,-4.1102,-4.107,-4.1068,-4.1216,-4.1218,-4.122,-4.1124,-4.1117,-4.1111,-4.1106,-4.1222,-4.1232,-4.1242,-4.1427,0,0,-4.1273,-4.1278,0,0,0,0,0,0,0,0,-4.0916,-4.0934,-4.1073,-4.1073,-4.1071,-4.1149,-4.1153,-4.1289,-4.1125,-4.1103,-4.111,-4.1103,-4.1206,-4.1217,-4.1252,-4.1432,-4.1437,-4.1274,-4.128,-4.1285,-4.1288,0,0,0,0,0,0,0,-4.0908,-4.0929,-4.1147,-4.1075,-4.1074,-4.1049,-4.1061,-4.1179,-4.1187,-4.1104,-4.1097,-4.1112,-4.1204,-4.1242,-4.1254,-4.1439,-4.1274,-4.1283,-4.1289,-4.1293,-4.1776,-4.1782,0,0,0,0,0,0,-4.0902,-4.0922,-4.1144,-4.1151,-4.0977,-4.106,-4.1072,-4.113,-4.1185,-4.1188,-4.1117,-4.1107,-4.1227,-4.1242,-4.1257,-4.1476,-4.1285,-4.1294,-4.13,-4.1769,-4.1777,-4.1784,0,0,0,0,0,0,-4.0896,-4.0923,-4.1139,-4.1035,-4.106,-4.1072,-4.1137,-4.1135,-4.1173,-4.1195,-4.1196,-4.1155,-4.1223,-4.1243,-4.1385,-4.1479,-4.1299,-4.1308,-4.1761,-4.1772,-4.1781,-4.1917,0,0,0,0,0,0,-4.0888,-4.0921,-4.0992,-4.1037,-4.1066,-4.1266,-4.1143,-4.1142,-4.1191,-4.1179,-4.1231,-4.1233,-4.122,-4.137,-4.1395,-4.149,-4.1317,-4.1753,-4.1766,-4.1778,-4.1904,-4.193,-4.1953,0,0,0,0,0,-4.0877,-4.1026,-4.0996,-4.1024,-4.1155,-4.1272,-4.1288,-4.127,-4.12,-4.127,-4.1284,-4.1232,-4.1465,-4.1386,-4.1413,-4.1512,-4.1747,-4.1762,-4.1777,-4.1893,-4.1925,-4.1952,0,0,0,0,0,0,-4.0992,-4.1031,-4.0999,-4.1167,-4.1217,-4.1255,-4.1344,-4.1305,-4.1375,-4.1361,-4.1335,-4.1347,-4.1497,-4.1519,-4.143,-4.1694,-4.1595,-4.1616,-4.1674,-4.1704,-4.1728,-4.1719,-4.1325,0,0,0,0,0,-4.1037,-4.1128,-4.1158,-4.1303,-4.133,-4.1333,-4.1383,-4.1364,-4.1415,-4.1435,-4.1459,-4.151,-4.1594,-4.1651,-4.173,-4.1907,-4.1916,-4.1989,-4.2013,-4.2033,-4.2051,-4.2145,-4.2178,-4.1833,-4.1833,-4.1833,0,0,-4.113,-4.1163,-4.1223,-4.1327,-4.1363,-4.1458,-4.1351,-4.1456,-4.1526,-4.1451,-4.1586,-4.1606,-4.1661,-4.1822,-4.1893,-4.1844,-4.2149,-4.2052,-4.2068,-4.2075,-4.2164,-4.2197,-4.2226,-4.1844,-4.1842,-4.184,0,0,-4.1349,-4.1383,-4.1508,-4.1546,-4.1603,-4.1604,-4.1634,-4.1678,-4.1688,-4.1824,-4.177,-4.1852,-4.1999,-4.2039,-4.2079,-4.2313,-4.2267,-4.234,-4.2467,-4.2559,-4.2586,-4.261,-4.2692,-4.2722,-4.2358,-4.2358,-4.2359,0,-4.1457,-4.1598,-4.1576,-4.1685,-4.1732,-4.1669,-4.1794,-4.1833,-4.1912,-4.1946,-4.189,-4.2072,-4.2104,-4.2273,-4.233,-4.2365,-4.2397,-4.2333,-4.2584,-4.2607,-4.2629,-4.2707,-4.2739,-4.2367,-4.2366,-4.2365,-4.2364,0,-4.1729,-4.1828,-4.1921,-4.1999,-4.2057,-4.2174,-4.2168,-4.2229,-4.2206,-4.2213,-4.2351,-4.2388,-4.2473,-4.2512,-4.249,-4.2677,-4.2645,-4.2587,-4.2487,-4.2671,-4.2744,-4.2774,-4.2379,-4.2376,-4.2373,-4.2371,0,0,-4.2022,-4.2087,-4.2121,-4.2156,-4.2213,-4.2289,-4.2402,-4.2485,-4.2537,-4.2595,-4.2688,-4.2813,-4.276,-4.2806,-4.2788,-4.2869,-4.305,-4.2801,-4.2802,-4.2845,-4.3257,-4.3299,-4.3334,-4.302,-4.3026,-4.303,-4.3252,0,-4.2242,-4.2439,-4.2423,-4.2609,-4.2699,-4.264,-4.2739,-4.2785,-4.2794,-4.2871,-4.2881,-4.297,-4.2894,-4.292,-4.2998,-4.3012,-4.3132,-4.2996,-4.3106,-4.311,-4.3093,-4.3373,-4.3418,-4.3625,-4.3281,-4.3285,-4.3289,0,-4.2525,-4.2591,-4.2787,-4.283,-4.2867,-4.2956,-4.303,-4.3106,-4.3156,-4.3157,-4.3208,-4.3176,-4.329,-4.3188,-4.3343,-4.325,-4.3295,-4.3308,-4.3316,-4.3324,-4.321,-4.3388,-4.3691,-4.3722,-4.3334,-4.333,-4.3327,0,-4.2717,-4.2856,-4.2991,-4.3022,-4.3076,-4.314,-4.3165,-4.321,-4.326,-4.3325,-4.3358,-4.3436,-4.3478,-4.3538,-4.3528,-4.3455,-4.3686,-4.3584,-4.3689,-4.369,-4.3739,-4.3736,-4.4053,-4.3771,-4.377,-4.377,-4.3769,0,-4.2964,-4.3086,-4.3078,-4.3161,-4.3295,-4.3275,-4.3408,-4.3425,-4.3466,-4.355,-4.3504,-4.3584,-4.3567,-4.3647,-4.364,-4.3768,-4.3788,-4.3791,-4.3788,-4.3795,-4.3794,-4.3822,-4.3807,-4.3778,-4.3776,-4.3775,-4.3773,0,-4.3201,-4.3202,-4.3344,-4.3384,-4.3396,-4.3493,-4.3527,-4.3604,-4.361,-4.3717,-4.3741,-4.375,-4.3842,-4.3838,-4.3942,-4.3937,-4.4095,-4.4075,-4.4078,-4.4073,-4.4178,-4.4168,-4.4523,-4.4568,-4.4258,-4.4261,-4.4264,0,-4.3358,-4.345,-4.3499,-4.3553,-4.3582,-4.3669,-4.372,-4.3704,-4.3759,-4.3823,-4.3893,-4.398,-4.4049,-4.4198,-4.4213,-4.4292,-4.4273,-4.4392,-4.4284,-4.4288,-4.4273,-4.4267,-4.4275,-4.4412,-4.4416,-4.4419,-4.4421,0,-4.3635,-4.3631,-4.3707,-4.3783,-4.3846,-4.3905,-4.396,-4.4006,-4.3995,-4.4059,-4.4152,-4.4206,-4.4311,-4.4398,-4.4473,-4.4498,-4.4458,-4.4455,-4.4483,-4.4491,-4.4488,-4.4489,-4.4134,-4.4447,-4.4444,-4.4442,-4.4441,-4.444,-4.3836,-4.3915,-4.3961,-4.4047,-4.4087,-4.4138,-4.4213,-4.4228,-4.4305,-4.4389,-4.4375,-4.4479,-4.4526,-4.4623,-4.4656,-4.4736,-4.4693,-4.4735,-4.4745,-4.4755,-4.4766,-4.4477,-4.475,-4.4749,-4.4748,-4.4748,-4.4747,0,-4.4109,-4.4137,-4.4216,-4.4293,-4.4361,-4.4318,-4.4375,-4.4434,-4.4526,-4.4574,-4.4642,-4.4749,-4.4832,-4.4855,-4.4935,-4.4995,-4.4978,-4.5017,-4.5011,-4.5017,-4.48,-4.4767,-4.5028,-4.5028,-4.5028,-4.5028,-4.5028,-4.5028,-4.426,-4.439,-4.4391,-4.454,-4.4566,-4.4667,-4.4704,-4.4751,-4.4788,-4.4909,-4.4978,-4.4992,-4.5029,-4.5112,-4.5187,-4.5191,-4.5222,-4.5267,-4.5264,-4.5061,-4.5033,-4.5006,-4.4974,-4.5275,-4.5275,-4.5474,-4.5476,-4.5477]},{"header":{"parameterUnit":"m.s-1","parameterCategory":1,"la1":30.2991,"la2":30.254,"lo1":-89.0895,"lo2":-89.0444,"dy":0.0017,"dx":0.0017,"nx":28,"ny":28,"refTime":"2023-11-01T09:00:00:Z","depth":0,"parameterNumber":3,"parameterNumberName":"V-component_of_WINDS"},"data":[0,0,0,0,0,0,0,0,0,0,0,0,0,0,0,0,0,0,0,0,0,0,0,0,0,0,0,0,0,0,0,0,0,0,0,0,0,0,0,0,0,0,0,0,0,0,0,0,0,0,0,0,0,0,0,0,0,0,-2.6362,-2.6361,0,-2.6327,-2.6327,-2.6326,-2.6345,-2.6346,-2.6347,-2.6347,-2.6309,-2.6307,-2.6305,0,0,0,0,0,0,0,0,0,0,0,0,0,-2.6437,-2.6436,-2.6362,-2.6361,-2.6361,-2.6327,-2.6327,-2.6326,-2.6344,-2.6346,-2.6347,-2.6348,-2.631,-2.6307,-2.6305,0,0,0,0,0,0,0,0,0,0,0,0,0,-2.6404,-2.6436,-2.6362,-2.6366,-2.6366,-2.6327,-2.6327,-2.6326,-2.6344,-2.6346,-2.6347,-2.6348,-2.631,-2.6308,-2.6305,-2.6259,0,0,-2.6296,-2.6295,0,0,0,0,0,0,0,0,-2.6406,-2.6401,-2.6366,-2.6366,-2.6366,-2.6342,-2.6339,-2.6303,-2.6344,-2.6352,-2.6347,-2.6349,-2.6318,-2.6315,-2.6305,-2.6257,-2.6255,-2.6296,-2.6294,-2.6293,-2.6292,0,0,0,0,0,0,0,-2.6408,-2.6402,-2.6348,-2.6365,-2.6365,-2.6367,-2.6364,-2.6332,-2.6328,-2.6352,-2.6353,-2.6349,-2.6319,-2.6308,-2.6305,-2.6255,-2.6296,-2.6293,-2.6292,-2.629,-2.6159,-2.6158,0,0,0,0,0,0,-2.6411,-2.6404,-2.6349,-2.6347,-2.639,-2.6365,-2.6361,-2.6348,-2.6328,-2.6327,-2.6348,-2.635,-2.6312,-2.6308,-2.6303,-2.6243,-2.6293,-2.629,-2.6289,-2.6161,-2.6159,-2.6157,0,0,0,0,0,0,-2.6412,-2.6406,-2.635,-2.6376,-2.6369,-2.6362,-2.6347,-2.6346,-2.6336,-2.6325,-2.6324,-2.6338,-2.6313,-2.6307,-2.6268,-2.6242,-2.6289,-2.6286,-2.6163,-2.616,-2.6158,-2.6125,0,0,0,0,0,0,-2.6414,-2.6406,-2.639,-2.6375,-2.6368,-2.6318,-2.6345,-2.6345,-2.6331,-2.6334,-2.6316,-2.6314,-2.6314,-2.6272,-2.6265,-2.6239,-2.6284,-2.6165,-2.6162,-2.6159,-2.6128,-2.6121,-2.6116,0,0,0,0,0,-2.6417,-2.6383,-2.639,-2.6383,-2.6348,-2.6316,-2.6312,-2.6313,-2.6329,-2.6311,-2.6304,-2.6315,-2.6247,-2.6268,-2.6261,-2.6233,-2.6167,-2.6163,-2.6159,-2.6131,-2.6123,-2.6116,0,0,0,0,0,0,-2.6395,-2.6382,-2.6388,-2.6349,-2.6334,-2.632,-2.6298,-2.6305,-2.6284,-2.6287,-2.6289,-2.6284,-2.6242,-2.6235,-2.6259,-2.6184,-2.6209,-2.6203,-2.619,-2.6182,-2.6176,-2.6177,-2.6282,0,0,0,0,0,-2.6386,-2.6363,-2.6352,-2.6318,-2.631,-2.6305,-2.6292,-2.6293,-2.6277,-2.6271,-2.626,-2.6243,-2.6216,-2.62,-2.6176,-2.6128,-2.6121,-2.6105,-2.6098,-2.6093,-2.6087,-2.6054,-2.6045,-2.6144,-2.6144,-2.6144,0,0,-2.6367,-2.6356,-2.6342,-2.6313,-2.6302,-2.6275,-2.63,-2.6272,-2.6251,-2.6266,-2.6227,-2.6219,-2.6199,-2.6153,-2.6133,-2.6145,-2.6058,-2.6088,-2.6084,-2.6081,-2.6049,-2.604,-2.6031,-2.6141,-2.6142,-2.6142,0,0,-2.6316,-2.6309,-2.6277,-2.6264,-2.6245,-2.6242,-2.6234,-2.6218,-2.6212,-2.6174,-2.6182,-2.6157,-2.6114,-2.6097,-2.6083,-2.6021,-2.6028,-2.6014,-2.598,-2.5948,-2.594,-2.5933,-2.5905,-2.5895,-2.6009,-2.6008,-2.6008,0,-2.6294,-2.6256,-2.6259,-2.6229,-2.6214,-2.6226,-2.6191,-2.6179,-2.6153,-2.6141,-2.6155,-2.6097,-2.6086,-2.6033,-2.6017,-2.6008,-2.5995,-2.6015,-2.5941,-2.5934,-2.5927,-2.59,-2.5891,-2.6006,-2.6007,-2.6007,-2.6007,0,-2.6226,-2.6199,-2.6176,-2.6149,-2.6132,-2.61,-2.6095,-2.6077,-2.6079,-2.6072,-2.6029,-2.6015,-2.5985,-2.5974,-2.5977,-2.592,-2.5927,-2.5942,-2.5966,-2.5916,-2.589,-2.588,-2.6003,-2.6004,-2.6005,-2.6005,0,0,-2.6163,-2.6136,-2.6127,-2.6112,-2.6091,-2.6069,-2.6035,-2.6006,-2.5987,-2.5968,-2.5936,-2.5898,-2.5909,-2.5893,-2.5893,-2.5866,-2.581,-2.5883,-2.5882,-2.5865,-2.5738,-2.5724,-2.5713,-2.5816,-2.5814,-2.5812,-2.5738,0,-2.6107,-2.6049,-2.6049,-2.5994,-2.5965,-2.5975,-2.5944,-2.5926,-2.5918,-2.589,-2.5882,-2.5851,-2.5872,-2.5861,-2.5834,-2.5823,-2.5784,-2.5829,-2.5781,-2.5779,-2.5781,-2.5701,-2.5687,-2.5618,-2.5729,-2.5727,-2.5726,0,-2.6035,-2.6012,-2.5954,-2.5931,-2.5919,-2.5892,-2.5862,-2.5838,-2.5815,-2.5811,-2.579,-2.5793,-2.5754,-2.5782,-2.5725,-2.5755,-2.5736,-2.5727,-2.5724,-2.5716,-2.5747,-2.5685,-2.5597,-2.5584,-2.5712,-2.5713,-2.5714,0,-2.5988,-2.5943,-2.59,-2.5888,-2.5863,-2.5842,-2.583,-2.5809,-2.5789,-2.5763,-2.5749,-2.5718,-2.57,-2.5675,-2.5667,-2.569,-2.5608,-2.5637,-2.5599,-2.5598,-2.5579,-2.5579,-2.548,-2.5574,-2.5574,-2.5575,-2.5575,0,-2.5924,-2.5886,-2.5878,-2.5851,-2.5808,-2.5807,-2.5763,-2.5752,-2.5732,-2.57,-2.5708,-2.5677,-2.5672,-2.5639,-2.5634,-2.5583,-2.5577,-2.5569,-2.5567,-2.5565,-2.5565,-2.5549,-2.5552,-2.5572,-2.5572,-2.5573,-2.5573,0,-2.5863,-2.5856,-2.5809,-2.5788,-2.5781,-2.5749,-2.5729,-2.5701,-2.5693,-2.5652,-2.5643,-2.5629,-2.559,-2.5581,-2.5536,-2.5532,-2.547,-2.5476,-2.5477,-2.5476,-2.5436,-2.5437,-2.5319,-2.53,-2.5412,-2.5411,-2.541,0,-2.582,-2.5791,-2.5765,-2.5745,-2.5731,-2.5699,-2.5678,-2.5674,-2.5652,-2.562,-2.5595,-2.5557,-2.5526,-2.5463,-2.5447,-2.541,-2.5411,-2.5372,-2.5406,-2.5402,-2.5403,-2.5403,-2.5396,-2.5364,-2.5363,-2.5362,-2.5362,0,-2.5744,-2.574,-2.5712,-2.5679,-2.5654,-2.5628,-2.5603,-2.5586,-2.5578,-2.5551,-2.5511,-2.5487,-2.5439,-2.5398,-2.536,-2.5345,-2.5349,-2.5351,-2.5339,-2.5335,-2.5335,-2.5328,-2.5454,-2.5353,-2.5354,-2.5355,-2.5355,-2.5356,-2.5687,-2.5659,-2.5635,-2.56,-2.5581,-2.5556,-2.5527,-2.5514,-2.5481,-2.5441,-2.5441,-2.5395,-2.5367,-2.5316,-2.5298,-2.5259,-2.5271,-2.5256,-2.525,-2.5245,-2.5238,-2.5345,-2.5253,-2.5254,-2.5254,-2.5254,-2.5254,0,-2.5606,-2.559,-2.5558,-2.5522,-2.5493,-2.5502,-2.5473,-2.5447,-2.5407,-2.5382,-2.535,-2.53,-2.526,-2.5239,-2.5198,-2.517,-2.5171,-2.5159,-2.5158,-2.5153,-2.5234,-2.5245,-2.5159,-2.5159,-2.5159,-2.5159,-2.5159,-2.5159,-2.556,-2.5511,-2.5504,-2.5444,-2.5428,-2.5383,-2.5365,-2.534,-2.5319,-2.5263,-2.523,-2.5217,-2.519,-2.5146,-2.5107,-2.5102,-2.5083,-2.5069,-2.5064,-2.5139,-2.5149,-2.5158,-2.5168,-2.5067,-2.5067,-2.4986,-2.4985,-2.4984]}]]